This is the latest recevied weather packets stored in our database for station/object KO4MMQ-10. If no packets are shown the sender has not sent any weather packets the latest 1 day(s).
| Time | Temp. | Humidity | Pressure | Rain* | Wind** | Luminosity | Snow |
|---|---|---|---|---|---|---|---|
| 1778085980 | 11.67° C | 95% | 1014.3 hPa | 0.25 mm | - | - | - |
| 1778085380 | 11.67° C | 95% | 1014.1 hPa | 0.25 mm | - | - | - |
| 1778082980 | 11.67° C | 96% | 1013.6 hPa | 5.33 mm | - | - | - |
| 1778082380 | 11.11° C | 95% | 1013.4 hPa | 5.59 mm | - | - | - |
| 1778081780 | 11.11° C | 96% | 1013.3 hPa | 6.86 mm | - | - | - |
| 1778081180 | 11.11° C | 95% | 1013.4 hPa | 7.87 mm | - | - | - |
| 1778078780 | 11.11° C | 96% | 1013.3 hPa | 7.37 mm | - | - | - |
| 1778075180 | 11.11° C | 95% | 1013 hPa | 0.76 mm | - | - | - |
| 1778072180 | 11.11° C | 95% | 1011.6 hPa | 0 mm | - | - | - |
| 1778070980 | 11.11° C | 95% | 1011.7 hPa | 0 mm | - | - | - |
| 1778069180 | 11.11° C | 95% | 1011.2 hPa | 0.51 mm | - | - | - |
| 1778068580 | 11.11° C | 96% | 1011 hPa | 0.51 mm | - | - | - |
| 1778067980 | 11.67° C | 96% | 1010.9 hPa | 1.27 mm | - | - | - |
| 1778067380 | 11.11° C | 96% | 1010.1 hPa | 1.78 mm | - | - | - |
| 1778065580 | 11.67° C | 95% | 1010.3 hPa | 2.79 mm | - | - | - |
| 1778064980 | 11.67° C | 95% | 1010.2 hPa | 5.08 mm | - | - | - |
| 1778064380 | 11.67° C | 95% | 1009.8 hPa | 12.7 mm | - | - | - |
| 1778062580 | 11.67° C | 95% | 1010.8 hPa | 13.46 mm | - | - | - |
| 1778058380 | 12.22° C | 95% | 1008.6 hPa | 29.46 mm | - | - | - |
| 1778056580 | 12.78° C | 94% | 1007.9 hPa | 19.05 mm | - | - | - |
| 1778054780 | 13.89° C | 91% | 1007.9 hPa | 18.54 mm | - | - | - |
| 1778052379 | 18.89° C | 89% | 1006.9 hPa | 11.68 mm | - | - | - |
| 1778051780 | 20° C | 86% | 1007 hPa | 0 mm | - | - | - |
| 1778051181 | 21.11° C | 84% | 1006.8 hPa | 0 mm | - | - | - |
| 1778049380 | 21.67° C | 85% | 1006.2 hPa | 0 mm | - | - | - |
* Rain latest hour (hover to see other rain measurements)
** Current wind speed in m/s (hover to see current wind gust speed)